This is the latest recevied weather packets stored in our database for station/object SV9FBP-13. If no packets are shown the sender has not sent any weather packets the latest 10 day(s).
| Time | Temp. | Humidity | Pressure | Rain* | Wind** | Luminosity | Snow |
|---|---|---|---|---|---|---|---|
| 1788293208 | 26.11° C | 64% | 1010.5 hPa | 0 mm | - | - | - |
| 1788292307 | 26.67° C | 63% | 1010.7 hPa | 0 mm | - | - | - |
| 1788291405 | 26.67° C | 63% | 1010.7 hPa | 0 mm | - | - | - |
| 1788290502 | 26.67° C | 62% | 1010.7 hPa | 0 mm | - | - | - |
| 1788289600 | 26.67° C | 60% | 1010.6 hPa | 0 mm | - | - | - |
| 1788288698 | 27.22° C | 60% | 1010.7 hPa | 0 mm | - | - | - |
| 1788287796 | 27.22° C | 58% | 1010.5 hPa | 0 mm | - | - | - |
| 1788286894 | 27.22° C | 58% | 1010.4 hPa | 0 mm | - | - | - |
| 1788285991 | 27.22° C | 55% | 1010.2 hPa | 0 mm | - | - | - |
| 1788285089 | 27.78° C | 51% | 1010 hPa | 0 mm | - | - | - |
| 1788284186 | 27.78° C | 50% | 1010 hPa | 0 mm | - | - | - |
| 1788283284 | 28.33° C | 50% | 1009.8 hPa | 0 mm | - | - | - |
| 1788282382 | 28.33° C | 50% | 1009.9 hPa | 0 mm | - | - | - |
| 1788281480 | 28.33° C | 50% | 1009.6 hPa | 0 mm | - | - | - |
| 1788280578 | 28.89° C | 50% | 1009.5 hPa | 0 mm | - | - | - |
| 1788279676 | 30° C | 46% | 1009.5 hPa | 0 mm | - | - | - |
| 1788278774 | 30.56° C | 45% | 1009.4 hPa | 0 mm | - | - | - |
| 1788277872 | 31.11° C | 47% | 1009.4 hPa | 0 mm | - | - | - |
| 1788276970 | 31.11° C | 47% | 1009.3 hPa | 0 mm | - | - | - |
| 1788276067 | 31.11° C | 46% | 1009.4 hPa | 0 mm | - | - | - |
| 1788275165 | 31.11° C | 44% | 1009.4 hPa | 0 mm | - | - | - |
| 1788274263 | 31.67° C | 44% | 1009.3 hPa | 0 mm | - | - | - |
| 1788273361 | 31.67° C | 46% | 1009.3 hPa | 0 mm | - | - | - |
| 1788272459 | 32.22° C | 46% | 1009.3 hPa | 0 mm | - | - | - |
| 1788271556 | 33.33° C | 41% | 1009.5 hPa | 0 mm | - | - | - |
* Rain latest hour (hover to see other rain measurements)
** Current wind speed in m/s (hover to see current wind gust speed)